contact:dominique.lefevre@mio.osupytheas.fr, maurice.libes@osupytheas.fr, didier.mallarino@osupytheas.fr
Project:EMSO http://www.emso-fr.org/EMSO-France
Depth: 2436.0 m
Title:EMSO Ligure Ouest : Data MII capteur MICROCAT
DateTime_Computer,Latitude,Longitude,Temperature,Conductivity,Pressure,DateTime_Instrument
DateTime_Computer,Latitude,Longitude,degC,S m-1,dbar,DateTime_Instrument
2022-04-18T00:02:48Z,42.805,6.029,13.3003,4.60034,2470.404,2022-4-18T02:04:27Z
2022-04-18T00:05:51Z,42.805,6.029,13.3001,4.60034,2470.39,2022-4-18T02:07:30Z
2022-04-18T00:08:54Z,42.805,6.029,13.2996,4.60034,2470.39,2022-4-18T02:10:33Z
2022-04-18T00:11:57Z,42.805,6.029,13.3000,4.60034,2470.404,2022-4-18T02:13:36Z
2022-04-18T00:15:01Z,42.805,6.029,13.3000,4.60036,2470.427,2022-4-18T02:16:39Z
2022-04-18T00:18:04Z,42.805,6.029,13.2998,4.60036,2470.376,2022-4-18T02:19:42Z
2022-04-18T00:21:07Z,42.805,6.029,13.2998,4.60035,2470.366,2022-4-18T02:22:45Z
2022-04-18T00:24:10Z,42.805,6.029,13.2997,4.60034,2470.366,2022-4-18T02:25:49Z
2022-04-18T00:27:13Z,42.805,6.029,13.2998,4.60034,2470.404,2022-4-18T02:28:52Z
2022-04-18T00:30:16Z,42.805,6.029,13.3000,4.60033,2470.366,2022-4-18T02:31:55Z
2022-04-18T00:33:19Z,42.805,6.029,13.2996,4.60033,2470.366,2022-4-18T02:34:58Z
2022-04-18T00:36:22Z,42.805,6.029,13.3002,4.60033,2470.366,2022-4-18T02:38:01Z
2022-04-18T00:39:26Z,42.805,6.029,13.2998,4.60033,2470.343,2022-4-18T02:41:04Z
2022-04-18T00:42:29Z,42.805,6.029,13.2998,4.60038,2470.366,2022-4-18T02:44:07Z
2022-04-18T00:45:32Z,42.805,6.029,13.2999,4.60034,2470.343,2022-4-18T02:47:10Z
2022-04-18T00:48:35Z,42.805,6.029,13.3000,4.60033,2470.366,2022-4-18T02:50:14Z
2022-04-18T00:51:38Z,42.805,6.029,13.2998,4.60033,2470.343,2022-4-18T02:53:17Z
2022-04-18T00:54:41Z,42.805,6.029,13.3000,4.60033,2470.357,2022-4-18T02:56:20Z
2022-04-18T00:57:44Z,42.805,6.029,13.3000,4.60034,2470.343,2022-4-18T02:59:23Z
2022-04-18T01:00:47Z,42.805,6.029,13.2998,4.60033,2470.357,2022-4-18T03:02:26Z
2022-04-18T01:03:50Z,42.805,6.029,13.2998,4.60033,2470.343,2022-4-18T03:05:29Z
2022-04-18T01:06:54Z,42.805,6.029,13.2998,4.60033,2470.32,2022-4-18T03:08:32Z
2022-04-18T01:09:57Z,42.805,6.029,13.2999,4.60036,2470.343,2022-4-18T03:11:35Z
2022-04-18T01:13:00Z,42.805,6.029,13.3000,4.60034,2470.343,2022-4-18T03:14:39Z
2022-04-18T01:16:03Z,42.805,6.029,13.3003,4.60034,2470.343,2022-4-18T03:17:42Z
2022-04-18T01:19:06Z,42.805,6.029,13.3001,4.60033,2470.38,2022-4-18T03:20:45Z
2022-04-18T01:22:09Z,42.805,6.029,13.2996,4.60034,2470.334,2022-4-18T03:23:48Z
2022-04-18T01:25:12Z,42.805,6.029,13.3004,4.60034,2470.343,2022-4-18T03:26:51Z
2022-04-18T01:28:15Z,42.805,6.029,13.3002,4.60033,2470.343,2022-4-18T03:29:54Z
2022-04-18T01:31:19Z,42.805,6.029,13.2999,4.60033,2470.343,2022-4-18T03:32:57Z
2022-04-18T01:34:22Z,42.805,6.029,13.3001,4.60033,2470.32,2022-4-18T03:36:00Z
2022-04-18T01:37:25Z,42.805,6.029,13.2996,4.60032,2470.297,2022-4-18T03:39:03Z
2022-04-18T01:40:28Z,42.805,6.029,13.3001,4.60033,2470.343,2022-4-18T03:42:07Z
2022-04-18T01:43:31Z,42.805,6.029,13.2996,4.60033,2470.343,2022-4-18T03:45:10Z
2022-04-18T01:46:34Z,42.805,6.029,13.3003,4.60033,2470.32,2022-4-18T03:48:13Z
2022-04-18T01:49:37Z,42.805,6.029,13.3001,4.60033,2470.343,2022-4-18T03:51:16Z
2022-04-18T01:52:40Z,42.805,6.029,13.2996,4.60033,2470.334,2022-4-18T03:54:19Z
2022-04-18T01:55:44Z,42.805,6.029,13.3000,4.60033,2470.334,2022-4-18T03:57:22Z
2022-04-18T01:58:47Z,42.805,6.029,13.3002,4.60033,2470.334,2022-4-18T04:00:25Z
2022-04-18T02:01:50Z,42.805,6.029,13.2999,4.60034,2470.32,2022-4-18T04:03:28Z
2022-04-18T02:04:53Z,42.805,6.029,13.2999,4.60035,2470.334,2022-4-18T04:06:32Z
2022-04-18T02:07:56Z,42.805,6.029,13.3001,4.60033,2470.297,2022-4-18T04:09:35Z
2022-04-18T02:10:59Z,42.805,6.029,13.2998,4.60033,2470.31,2022-4-18T04:12:38Z
2022-04-18T02:14:02Z,42.805,6.029,13.2996,4.60032,2470.334,2022-4-18T04:15:41Z
2022-04-18T02:17:05Z,42.805,6.029,13.3001,4.60033,2470.32,2022-4-18T04:18:44Z
2022-04-18T02:20:09Z,42.805,6.029,13.2999,4.60032,2470.334,2022-4-18T04:21:47Z
2022-04-18T02:23:12Z,42.805,6.029,13.2999,4.60033,2470.297,2022-4-18T04:24:50Z
2022-04-18T02:26:15Z,42.805,6.029,13.2999,4.60032,2470.343,2022-4-18T04:27:53Z
2022-04-18T02:29:18Z,42.805,6.029,13.2998,4.60032,2470.31,2022-4-18T04:30:57Z
2022-04-18T02:32:21Z,42.805,6.029,13.2997,4.60031,2470.343,2022-4-18T04:34:00Z
2022-04-18T02:35:24Z,42.805,6.029,13.2998,4.60032,2470.32,2022-4-18T04:37:03Z
2022-04-18T02:38:27Z,42.805,6.029,13.2998,4.60032,2470.297,2022-4-18T04:40:06Z
2022-04-18T02:41:30Z,42.805,6.029,13.3000,4.60033,2470.334,2022-4-18T04:43:09Z
2022-04-18T02:44:33Z,42.805,6.029,13.3000,4.60033,2470.334,2022-4-18T04:46:12Z
2022-04-18T02:47:37Z,42.805,6.029,13.3003,4.60032,2470.32,2022-4-18T04:49:15Z
2022-04-18T02:50:40Z,42.805,6.029,13.3000,4.60033,2470.343,2022-4-18T04:52:18Z
2022-04-18T02:53:43Z,42.805,6.029,13.2997,4.60032,2470.32,2022-4-18T04:55:21Z
2022-04-18T02:56:46Z,42.805,6.029,13.3000,4.60032,2470.343,2022-4-18T04:58:25Z
2022-04-18T02:59:49Z,42.805,6.029,13.2998,4.60033,2470.334,2022-4-18T05:01:28Z
2022-04-18T03:02:52Z,42.805,6.029,13.2996,4.60035,2470.32,2022-4-18T05:04:31Z
2022-04-18T03:05:55Z,42.805,6.029,13.3000,4.60032,2470.357,2022-4-18T05:07:34Z
2022-04-18T03:08:58Z,42.805,6.029,13.2998,4.60033,2470.334,2022-4-18T05:10:37Z
2022-04-18T03:12:02Z,42.805,6.029,13.2999,4.60033,2470.343,2022-4-18T05:13:40Z
2022-04-18T03:15:05Z,42.805,6.029,13.3000,4.60035,2470.343,2022-4-18T05:16:43Z
2022-04-18T03:18:08Z,42.805,6.029,13.2996,4.60032,2470.343,2022-4-18T05:19:46Z
2022-04-18T03:21:11Z,42.805,6.029,13.3001,4.60033,2470.343,2022-4-18T05:22:50Z
2022-04-18T03:24:14Z,42.805,6.029,13.2995,4.60032,2470.31,2022-4-18T05:25:53Z
2022-04-18T03:27:17Z,42.805,6.029,13.3001,4.60033,2470.343,2022-4-18T05:28:56Z
2022-04-18T03:30:20Z,42.805,6.029,13.2995,4.60032,2470.357,2022-4-18T05:31:59Z
2022-04-18T03:33:23Z,42.805,6.029,13.2998,4.60032,2470.38,2022-4-18T05:35:02Z
2022-04-18T03:36:27Z,42.805,6.029,13.3000,4.60034,2470.343,2022-4-18T05:38:05Z
2022-04-18T03:39:30Z,42.805,6.029,13.3002,4.60033,2470.343,2022-4-18T05:41:08Z
2022-04-18T03:42:33Z,42.805,6.029,13.2999,4.60033,2470.343,2022-4-18T05:44:11Z
2022-04-18T03:45:36Z,42.805,6.029,13.2996,4.60033,2470.39,2022-4-18T05:47:15Z
2022-04-18T03:48:39Z,42.805,6.029,13.3000,4.60033,2470.334,2022-4-18T05:50:18Z
2022-04-18T03:51:42Z,42.805,6.029,13.3000,4.60033,2470.366,2022-4-18T05:53:21Z
2022-04-18T03:54:45Z,42.805,6.029,13.3000,4.60033,2470.32,2022-4-18T05:56:24Z
2022-04-18T03:57:48Z,42.805,6.029,13.3003,4.60033,2470.39,2022-4-18T05:59:27Z
2022-04-18T04:00:52Z,42.805,6.029,13.2997,4.60032,2470.343,2022-4-18T06:02:30Z
2022-04-18T04:03:55Z,42.805,6.029,13.3000,4.60033,2470.366,2022-4-18T06:05:33Z
2022-04-18T04:06:58Z,42.805,6.029,13.2998,4.60033,2470.366,2022-4-18T06:08:36Z
2022-04-18T04:10:01Z,42.805,6.029,13.2998,4.60033,2470.366,2022-4-18T06:11:40Z
2022-04-18T04:13:04Z,42.805,6.029,13.2999,4.60034,2470.366,2022-4-18T06:14:43Z
2022-04-18T04:16:07Z,42.805,6.029,13.2999,4.60033,2470.357,2022-4-18T06:17:46Z
2022-04-18T04:19:10Z,42.805,6.029,13.2998,4.60033,2470.366,2022-4-18T06:20:49Z
2022-04-18T04:22:13Z,42.805,6.029,13.2998,4.60033,2470.366,2022-4-18T06:23:52Z
2022-04-18T04:25:16Z,42.805,6.029,13.2999,4.60035,2470.39,2022-4-18T06:26:55Z
2022-04-18T04:28:20Z,42.805,6.029,13.3000,4.60034,2470.404,2022-4-18T06:29:58Z
2022-04-18T04:31:23Z,42.805,6.029,13.2998,4.60035,2470.38,2022-4-18T06:33:01Z
2022-04-18T04:34:26Z,42.805,6.029,13.3002,4.60034,2470.366,2022-4-18T06:36:04Z
2022-04-18T04:37:29Z,42.805,6.029,13.3001,4.60036,2470.39,2022-4-18T06:39:08Z
2022-04-18T04:40:32Z,42.805,6.029,13.2998,4.60036,2470.413,2022-4-18T06:42:11Z
2022-04-18T04:43:35Z,42.805,6.029,13.3000,4.60036,2470.39,2022-4-18T06:45:14Z
2022-04-18T04:46:38Z,42.805,6.029,13.3006,4.60036,2470.38,2022-4-18T06:48:17Z
2022-04-18T04:49:41Z,42.805,6.029,13.3003,4.60035,2470.404,2022-4-18T06:51:20Z
2022-04-18T04:52:45Z,42.805,6.029,13.3000,4.60037,2470.413,2022-4-18T06:54:23Z
2022-04-18T04:55:48Z,42.805,6.029,13.2999,4.60039,2470.39,2022-4-18T06:57:26Z
2022-04-18T04:58:51Z,42.805,6.029,13.3000,4.60035,2470.39,2022-4-18T07:00:29Z
2022-04-18T05:01:54Z,42.805,6.029,13.2999,4.60037,2470.39,2022-4-18T07:03:33Z
2022-04-18T05:04:57Z,42.805,6.029,13.3006,4.60035,2470.427,2022-4-18T07:06:36Z
2022-04-18T05:08:00Z,42.805,6.029,13.3003,4.60036,2470.404,2022-4-18T07:09:39Z
2022-04-18T05:11:03Z,42.805,6.029,13.3002,4.60039,2470.413,2022-4-18T07:12:42Z
2022-04-18T05:14:06Z,42.805,6.029,13.2998,4.60037,2470.404,2022-4-18T07:15:45Z
2022-04-18T05:17:10Z,42.805,6.029,13.3002,4.60037,2470.399,2022-4-18T07:18:48Z
2022-04-18T05:20:13Z,42.805,6.029,13.3004,4.60042,2470.404,2022-4-18T07:21:51Z
2022-04-18T05:23:16Z,42.805,6.029,13.3006,4.60042,2470.437,2022-4-18T07:24:54Z
2022-04-18T05:26:19Z,42.805,6.029,13.3004,4.60039,2470.437,2022-4-18T07:27:58Z
2022-04-18T05:29:22Z,42.805,6.029,13.3001,4.60038,2470.474,2022-4-18T07:31:01Z
2022-04-18T05:32:25Z,42.805,6.029,13.3004,4.60038,2470.437,2022-4-18T07:34:04Z
2022-04-18T05:35:28Z,42.805,6.029,13.3000,4.60037,2470.413,2022-4-18T07:37:07Z
2022-04-18T05:38:31Z,42.805,6.029,13.3001,4.60037,2470.437,2022-4-18T07:40:10Z
2022-04-18T05:41:34Z,42.805,6.029,13.3003,4.60038,2470.437,2022-4-18T07:43:13Z
2022-04-18T05:44:38Z,42.805,6.029,13.3004,4.60037,2470.45,2022-4-18T07:46:16Z
2022-04-18T05:47:41Z,42.805,6.029,13.3005,4.60037,2470.45,2022-4-18T07:49:19Z
2022-04-18T05:50:44Z,42.805,6.029,13.3002,4.60037,2470.437,2022-4-18T07:52:23Z
2022-04-18T05:53:47Z,42.805,6.029,13.3001,4.60038,2470.46,2022-4-18T07:55:26Z
2022-04-18T05:56:50Z,42.805,6.029,13.3001,4.60042,2470.437,2022-4-18T07:58:29Z
2022-04-18T05:59:53Z,42.805,6.029,13.3004,4.60039,2470.437,2022-4-18T08:01:32Z
2022-04-18T06:02:56Z,42.805,6.029,13.3005,4.60039,2470.437,2022-4-18T08:04:35Z
2022-04-18T06:05:59Z,42.805,6.029,13.3005,4.60038,2470.46,2022-4-18T08:07:38Z
2022-04-18T06:09:03Z,42.805,6.029,13.3007,4.60038,2470.483,2022-4-18T08:10:41Z
2022-04-18T06:12:06Z,42.805,6.029,13.3000,4.60039,2470.474,2022-4-18T08:13:44Z
2022-04-18T06:15:09Z,42.805,6.029,13.2999,4.60039,2470.46,2022-4-18T08:16:47Z
2022-04-18T06:18:12Z,42.805,6.029,13.3009,4.60044,2470.46,2022-4-18T08:19:51Z
2022-04-18T06:21:15Z,42.805,6.029,13.3001,4.60039,2470.483,2022-4-18T08:22:54Z
2022-04-18T06:24:18Z,42.805,6.029,13.3004,4.60039,2470.497,2022-4-18T08:25:57Z
2022-04-18T06:27:21Z,42.805,6.029,13.3004,4.60039,2470.46,2022-4-18T08:29:00Z
2022-04-18T06:30:24Z,42.805,6.029,13.3004,4.60040,2470.46,2022-4-18T08:32:03Z
2022-04-18T06:33:28Z,42.805,6.029,13.3005,4.60039,2470.483,2022-4-18T08:35:06Z
2022-04-18T06:36:31Z,42.805,6.029,13.3005,4.60039,2470.483,2022-4-18T08:38:09Z
2022-04-18T06:39:34Z,42.805,6.029,13.2998,4.60039,2470.46,2022-4-18T08:41:12Z
2022-04-18T06:42:37Z,42.805,6.029,13.3000,4.60039,2470.46,2022-4-18T08:44:16Z
2022-04-18T06:45:40Z,42.805,6.029,13.3008,4.60041,2470.437,2022-4-18T08:47:19Z
2022-04-18T06:48:43Z,42.805,6.029,13.3002,4.60041,2470.497,2022-4-18T08:50:22Z
2022-04-18T06:51:46Z,42.805,6.029,13.3000,4.60039,2470.497,2022-4-18T08:53:25Z
2022-04-18T06:54:49Z,42.805,6.029,13.3004,4.60041,2470.46,2022-4-18T08:56:28Z
2022-04-18T06:57:53Z,42.805,6.029,13.3005,4.60041,2470.46,2022-4-18T08:59:31Z
2022-04-18T07:00:56Z,42.805,6.029,13.3007,4.60041,2470.46,2022-4-18T09:02:34Z
2022-04-18T07:03:59Z,42.805,6.029,13.3004,4.60041,2470.483,2022-4-18T09:05:37Z
2022-04-18T07:07:02Z,42.805,6.029,13.3004,4.60040,2470.46,2022-4-18T09:08:41Z
2022-04-18T07:10:05Z,42.805,6.029,13.3005,4.60040,2470.483,2022-4-18T09:11:44Z
2022-04-18T07:13:08Z,42.805,6.029,13.3004,4.60041,2470.497,2022-4-18T09:14:47Z
2022-04-18T07:16:11Z,42.805,6.029,13.3006,4.60041,2470.483,2022-4-18T09:17:50Z
2022-04-18T07:19:14Z,42.805,6.029,13.3006,4.60041,2470.507,2022-4-18T09:20:53Z
2022-04-18T07:22:17Z,42.805,6.029,13.3006,4.60041,2470.507,2022-4-18T09:23:56Z
2022-04-18T07:25:21Z,42.805,6.029,13.3006,4.60041,2470.483,2022-4-18T09:26:59Z
2022-04-18T07:28:24Z,42.805,6.029,13.3004,4.60045,2470.483,2022-4-18T09:30:02Z
2022-04-18T07:31:27Z,42.805,6.029,13.3006,4.60047,2470.497,2022-4-18T09:33:06Z
2022-04-18T07:34:30Z,42.805,6.029,13.3004,4.60042,2470.497,2022-4-18T09:36:09Z
2022-04-18T07:37:33Z,42.805,6.029,13.3004,4.60046,2470.483,2022-4-18T09:39:12Z
2022-04-18T07:40:36Z,42.805,6.029,13.3004,4.60042,2470.507,2022-4-18T09:42:15Z
2022-04-18T07:43:39Z,42.805,6.029,13.3004,4.60042,2470.483,2022-4-18T09:45:18Z
2022-04-18T07:46:42Z,42.805,6.029,13.3008,4.60049,2470.46,2022-4-18T09:48:21Z
2022-04-18T07:49:46Z,42.805,6.029,13.3009,4.60042,2470.46,2022-4-18T09:51:24Z
2022-04-18T07:52:49Z,42.805,6.029,13.3004,4.60044,2470.46,2022-4-18T09:54:27Z
2022-04-18T07:55:52Z,42.805,6.029,13.3000,4.60042,2470.483,2022-4-18T09:57:30Z
2022-04-18T07:58:55Z,42.805,6.029,13.3008,4.60045,2470.497,2022-4-18T10:00:34Z
2022-04-18T08:01:58Z,42.805,6.029,13.3006,4.60041,2470.507,2022-4-18T10:03:37Z
2022-04-18T08:05:01Z,42.805,6.029,13.3006,4.60041,2470.497,2022-4-18T10:06:40Z
2022-04-18T08:08:04Z,42.805,6.029,13.3004,4.60041,2470.483,2022-4-18T10:09:43Z
2022-04-18T08:11:07Z,42.805,6.029,13.3003,4.60040,2470.507,2022-4-18T10:12:46Z
2022-04-18T08:14:11Z,42.805,6.029,13.3004,4.60044,2470.497,2022-4-18T10:15:49Z
2022-04-18T08:17:14Z,42.805,6.029,13.3006,4.60044,2470.497,2022-4-18T10:18:52Z
2022-04-18T08:20:17Z,42.805,6.029,13.3006,4.60044,2470.497,2022-4-18T10:21:55Z
2022-04-18T08:23:20Z,42.805,6.029,13.3007,4.60040,2470.483,2022-4-18T10:24:59Z
2022-04-18T08:26:23Z,42.805,6.029,13.3002,4.60042,2470.474,2022-4-18T10:28:02Z
2022-04-18T08:29:26Z,42.805,6.029,13.3004,4.60040,2470.474,2022-4-18T10:31:05Z
2022-04-18T08:32:29Z,42.805,6.029,13.3007,4.60040,2470.52,2022-4-18T10:34:08Z
2022-04-18T08:35:32Z,42.805,6.029,13.3005,4.60044,2470.483,2022-4-18T10:37:11Z
2022-04-18T08:38:36Z,42.805,6.029,13.3004,4.60040,2470.507,2022-4-18T10:40:14Z
2022-04-18T08:41:39Z,42.805,6.029,13.3005,4.60040,2470.474,2022-4-18T10:43:17Z
2022-04-18T08:44:42Z,42.805,6.029,13.3005,4.60040,2470.483,2022-4-18T10:46:20Z
2022-04-18T08:47:45Z,42.805,6.029,13.3002,4.60041,2470.483,2022-4-18T10:49:24Z
2022-04-18T08:50:48Z,42.805,6.029,13.3002,4.60040,2470.507,2022-4-18T10:52:27Z
2022-04-18T08:53:51Z,42.805,6.029,13.3004,4.60039,2470.46,2022-4-18T10:55:30Z
2022-04-18T08:56:54Z,42.805,6.029,13.3008,4.60041,2470.497,2022-4-18T10:58:33Z
2022-04-18T08:59:57Z,42.805,6.029,13.3006,4.60040,2470.437,2022-4-18T11:01:36Z
2022-04-18T09:03:00Z,42.805,6.029,13.3002,4.60040,2470.46,2022-4-18T11:04:39Z
2022-04-18T09:06:04Z,42.805,6.029,13.3004,4.60040,2470.507,2022-4-18T11:07:42Z
2022-04-18T09:09:07Z,42.805,6.029,13.3005,4.60041,2470.483,2022-4-18T11:10:45Z
2022-04-18T09:12:10Z,42.805,6.029,13.2999,4.60040,2470.474,2022-4-18T11:13:49Z
2022-04-18T09:15:13Z,42.805,6.029,13.3004,4.60040,2470.46,2022-4-18T11:16:52Z
2022-04-18T09:18:16Z,42.805,6.029,13.3004,4.60040,2470.483,2022-4-18T11:19:55Z
2022-04-18T09:21:19Z,42.805,6.029,13.3008,4.60042,2470.46,2022-4-18T11:22:58Z
2022-04-18T09:24:22Z,42.805,6.029,13.3006,4.60040,2470.46,2022-4-18T11:26:01Z
2022-04-18T09:27:26Z,42.805,6.029,13.3003,4.60041,2470.46,2022-4-18T11:29:04Z
2022-04-18T09:30:29Z,42.805,6.029,13.3005,4.60039,2470.46,2022-4-18T11:32:07Z
2022-04-18T09:33:32Z,42.805,6.029,13.3003,4.60040,2470.46,2022-4-18T11:35:10Z
2022-04-18T09:36:35Z,42.805,6.029,13.3004,4.60040,2470.46,2022-4-18T11:38:14Z
2022-04-18T09:39:38Z,42.805,6.029,13.3003,4.60040,2470.47,2022-4-18T11:41:17Z
2022-04-18T09:42:41Z,42.805,6.029,13.3009,4.60040,2470.46,2022-4-18T11:44:20Z
2022-04-18T09:45:44Z,42.805,6.029,13.3004,4.60040,2470.483,2022-4-18T11:47:23Z
2022-04-18T09:48:47Z,42.805,6.029,13.3005,4.60039,2470.46,2022-4-18T11:50:26Z
2022-04-18T09:51:51Z,42.805,6.029,13.3009,4.60040,2470.483,2022-4-18T11:53:29Z
2022-04-18T09:54:54Z,42.805,6.029,13.3006,4.60041,2470.437,2022-4-18T11:56:32Z
2022-04-18T09:57:57Z,42.805,6.029,13.3003,4.60040,2470.46,2022-4-18T11:59:35Z
2022-04-18T10:01:00Z,42.805,6.029,13.3004,4.60040,2470.45,2022-4-18T12:02:39Z
2022-04-18T10:04:03Z,42.805,6.029,13.3006,4.60040,2470.474,2022-4-18T12:05:42Z
2022-04-18T10:07:06Z,42.805,6.029,13.3007,4.60041,2470.437,2022-4-18T12:08:45Z
2022-04-18T10:10:09Z,42.805,6.029,13.3005,4.60042,2470.46,2022-4-18T12:11:48Z
2022-04-18T10:13:12Z,42.805,6.029,13.3002,4.60042,2470.437,2022-4-18T12:14:51Z
2022-04-18T10:16:16Z,42.805,6.029,13.3006,4.60041,2470.46,2022-4-18T12:17:54Z
2022-04-18T10:19:19Z,42.805,6.029,13.3004,4.60041,2470.437,2022-4-18T12:20:57Z
2022-04-18T10:22:22Z,42.805,6.029,13.3008,4.60042,2470.437,2022-4-18T12:24:00Z
2022-04-18T10:25:25Z,42.805,6.029,13.3004,4.60042,2470.46,2022-4-18T12:27:04Z
2022-04-18T10:28:28Z,42.805,6.029,13.3006,4.60042,2470.46,2022-4-18T12:30:07Z
2022-04-18T10:31:31Z,42.805,6.029,13.3004,4.60041,2470.437,2022-4-18T12:33:10Z
2022-04-18T10:34:34Z,42.805,6.029,13.3004,4.60043,2470.45,2022-4-18T12:36:13Z
2022-04-18T10:37:37Z,42.805,6.029,13.3003,4.60041,2470.46,2022-4-18T12:39:16Z
2022-04-18T10:40:41Z,42.805,6.029,13.3007,4.60042,2470.437,2022-4-18T12:42:19Z
2022-04-18T10:43:44Z,42.805,6.029,13.3009,4.60042,2470.437,2022-4-18T12:45:22Z
2022-04-18T10:46:47Z,42.805,6.029,13.3006,4.60042,2470.437,2022-4-18T12:48:25Z
2022-04-18T10:49:50Z,42.805,6.029,13.3006,4.60042,2470.437,2022-4-18T12:51:29Z
2022-04-18T10:52:53Z,42.805,6.029,13.3009,4.60045,2470.404,2022-4-18T12:54:32Z
2022-04-18T10:55:56Z,42.805,6.029,13.3008,4.60043,2470.427,2022-4-18T12:57:35Z
2022-04-18T10:58:59Z,42.805,6.029,13.3006,4.60042,2470.427,2022-4-18T13:00:38Z
2022-04-18T11:02:02Z,42.805,6.029,13.3003,4.60042,2470.413,2022-4-18T13:03:41Z
2022-04-18T11:05:06Z,42.805,6.029,13.3005,4.60042,2470.437,2022-4-18T13:06:44Z
2022-04-18T11:08:09Z,42.805,6.029,13.3006,4.60044,2470.437,2022-4-18T13:09:47Z
2022-04-18T11:11:12Z,42.805,6.029,13.3006,4.60042,2470.437,2022-4-18T13:12:50Z
2022-04-18T11:14:15Z,42.805,6.029,13.3007,4.60043,2470.413,2022-4-18T13:15:54Z
2022-04-18T11:17:18Z,42.805,6.029,13.3008,4.60050,2470.39,2022-4-18T13:18:57Z
2022-04-18T11:20:21Z,42.805,6.029,13.3008,4.60041,2470.413,2022-4-18T13:22:00Z
2022-04-18T11:23:24Z,42.805,6.029,13.3006,4.60042,2470.413,2022-4-18T13:25:03Z
2022-04-18T11:26:27Z,42.805,6.029,13.3009,4.60042,2470.413,2022-4-18T13:28:06Z
2022-04-18T11:29:31Z,42.805,6.029,13.3007,4.60041,2470.413,2022-4-18T13:31:09Z
2022-04-18T11:32:34Z,42.805,6.029,13.3004,4.60046,2470.404,2022-4-18T13:34:12Z
2022-04-18T11:35:37Z,42.805,6.029,13.3005,4.60042,2470.427,2022-4-18T13:37:15Z
2022-04-18T11:38:40Z,42.805,6.029,13.3009,4.60042,2470.404,2022-4-18T13:40:19Z
2022-04-18T11:41:43Z,42.805,6.029,13.3006,4.60042,2470.39,2022-4-18T13:43:22Z
2022-04-18T11:44:46Z,42.805,6.029,13.3006,4.60044,2470.427,2022-4-18T13:46:25Z
2022-04-18T11:47:49Z,42.805,6.029,13.3009,4.60044,2470.404,2022-4-18T13:49:28Z
2022-04-18T11:50:52Z,42.805,6.029,13.3009,4.60046,2470.413,2022-4-18T13:52:31Z
2022-04-18T11:53:56Z,42.805,6.029,13.3005,4.60045,2470.413,2022-4-18T13:55:34Z
2022-04-18T11:56:59Z,42.805,6.029,13.3005,4.60043,2470.366,2022-4-18T13:58:37Z
2022-04-18T12:00:02Z,42.805,6.029,13.3003,4.60043,2470.366,2022-4-18T14:01:40Z
2022-04-18T12:03:05Z,42.805,6.029,13.3006,4.60042,2470.427,2022-4-18T14:04:44Z
2022-04-18T12:06:08Z,42.805,6.029,13.3008,4.60043,2470.413,2022-4-18T14:07:47Z
2022-04-18T12:09:11Z,42.805,6.029,13.3009,4.60043,2470.38,2022-4-18T14:10:50Z
2022-04-18T12:12:14Z,42.805,6.029,13.3004,4.60044,2470.39,2022-4-18T14:13:53Z
2022-04-18T12:15:17Z,42.805,6.029,13.3009,4.60044,2470.343,2022-4-18T14:16:56Z
2022-04-18T12:18:21Z,42.805,6.029,13.3008,4.60043,2470.39,2022-4-18T14:19:59Z
2022-04-18T12:21:24Z,42.805,6.029,13.3005,4.60044,2470.38,2022-4-18T14:23:02Z
2022-04-18T12:24:27Z,42.805,6.029,13.3009,4.60044,2470.38,2022-4-18T14:26:05Z
2022-04-18T12:27:30Z,42.805,6.029,13.3009,4.60043,2470.39,2022-4-18T14:29:09Z
2022-04-18T12:30:33Z,42.805,6.029,13.3006,4.60044,2470.413,2022-4-18T14:32:12Z
2022-04-18T12:33:36Z,42.805,6.029,13.3008,4.60044,2470.366,2022-4-18T14:35:15Z
2022-04-18T12:36:39Z,42.805,6.029,13.3009,4.60043,2470.366,2022-4-18T14:38:18Z
2022-04-18T12:39:42Z,42.805,6.029,13.3009,4.60046,2470.366,2022-4-18T14:41:21Z
2022-04-18T12:42:46Z,42.805,6.029,13.3009,4.60043,2470.38,2022-4-18T14:44:24Z
2022-04-18T12:45:49Z,42.805,6.029,13.3009,4.60044,2470.366,2022-4-18T14:47:27Z
2022-04-18T12:48:52Z,42.805,6.029,13.3009,4.60047,2470.38,2022-4-18T14:50:31Z
2022-04-18T12:51:55Z,42.805,6.029,13.3010,4.60043,2470.343,2022-4-18T14:53:34Z
2022-04-18T12:54:58Z,42.805,6.029,13.3011,4.60043,2470.39,2022-4-18T14:56:37Z
2022-04-18T12:58:01Z,42.805,6.029,13.3008,4.60047,2470.334,2022-4-18T14:59:40Z
2022-04-18T13:01:04Z,42.805,6.029,13.3009,4.60046,2470.38,2022-4-18T15:02:43Z
2022-04-18T13:04:07Z,42.805,6.029,13.3007,4.60044,2470.343,2022-4-18T15:05:46Z
2022-04-18T13:07:11Z,42.805,6.029,13.3009,4.60044,2470.32,2022-4-18T15:08:49Z
2022-04-18T13:10:14Z,42.805,6.029,13.3008,4.60044,2470.343,2022-4-18T15:11:52Z
2022-04-18T13:13:17Z,42.805,6.029,13.3007,4.60045,2470.31,2022-4-18T15:14:55Z
2022-04-18T13:16:20Z,42.805,6.029,13.3011,4.60044,2470.343,2022-4-18T15:17:59Z
2022-04-18T13:19:23Z,42.805,6.029,13.3009,4.60046,2470.38,2022-4-18T15:21:02Z
2022-04-18T13:22:26Z,42.805,6.029,13.3012,4.60044,2470.366,2022-4-18T15:24:05Z
2022-04-18T13:25:29Z,42.805,6.029,13.3014,4.60046,2470.334,2022-4-18T15:27:08Z
2022-04-18T13:28:32Z,42.805,6.029,13.3009,4.60044,2470.32,2022-4-18T15:30:11Z
2022-04-18T13:31:36Z,42.805,6.029,13.3007,4.60047,2470.343,2022-4-18T15:33:14Z
2022-04-18T13:34:39Z,42.805,6.029,13.3009,4.60045,2470.306,2022-4-18T15:36:17Z
2022-04-18T13:37:42Z,42.805,6.029,13.3004,4.60045,2470.343,2022-4-18T15:39:20Z
2022-04-18T13:40:45Z,42.805,6.029,13.3010,4.60048,2470.32,2022-4-18T15:42:24Z
2022-04-18T13:43:48Z,42.805,6.029,13.3011,4.60049,2470.297,2022-4-18T15:45:27Z
2022-04-18T13:46:51Z,42.805,6.029,13.3009,4.60046,2470.297,2022-4-18T15:48:30Z
2022-04-18T13:49:54Z,42.805,6.029,13.3009,4.60047,2470.343,2022-4-18T15:51:33Z
2022-04-18T13:52:57Z,42.805,6.029,13.3010,4.60044,2470.343,2022-4-18T15:54:36Z
2022-04-18T13:56:01Z,42.805,6.029,13.3009,4.60044,2470.297,2022-4-18T15:57:39Z
2022-04-18T13:59:04Z,42.805,6.029,13.3011,4.60046,2470.343,2022-4-18T16:00:42Z
2022-04-18T14:02:07Z,42.805,6.029,13.3011,4.60044,2470.334,2022-4-18T16:03:45Z
2022-04-18T14:05:10Z,42.805,6.029,13.3011,4.60044,2470.32,2022-4-18T16:06:49Z
2022-04-18T14:08:13Z,42.805,6.029,13.3012,4.60044,2470.343,2022-4-18T16:09:52Z
2022-04-18T14:11:16Z,42.805,6.029,13.3006,4.60046,2470.306,2022-4-18T16:12:55Z
2022-04-18T14:14:19Z,42.805,6.029,13.3009,4.60046,2470.31,2022-4-18T16:15:58Z
2022-04-18T14:17:22Z,42.805,6.029,13.3009,4.60050,2470.334,2022-4-18T16:19:01Z
2022-04-18T14:20:26Z,42.805,6.029,13.3011,4.60047,2470.32,2022-4-18T16:22:04Z
2022-04-18T14:23:29Z,42.805,6.029,13.3011,4.60049,2470.32,2022-4-18T16:25:07Z
2022-04-18T14:26:32Z,42.805,6.029,13.3014,4.60047,2470.32,2022-4-18T16:28:10Z
2022-04-18T14:29:35Z,42.805,6.029,13.3010,4.60046,2470.32,2022-4-18T16:31:14Z
2022-04-18T14:32:38Z,42.805,6.029,13.3008,4.60046,2470.32,2022-4-18T16:34:17Z
2022-04-18T14:35:41Z,42.805,6.029,13.3009,4.60046,2470.297,2022-4-18T16:37:20Z
2022-04-18T14:38:44Z,42.805,6.029,13.3011,4.60046,2470.334,2022-4-18T16:40:23Z
2022-04-18T14:41:47Z,42.805,6.029,13.3008,4.60046,2470.343,2022-4-18T16:43:26Z
2022-04-18T14:44:51Z,42.805,6.029,13.3013,4.60047,2470.32,2022-4-18T16:46:29Z
2022-04-18T14:47:54Z,42.805,6.029,13.3011,4.60046,2470.357,2022-4-18T16:49:32Z
2022-04-18T14:50:57Z,42.805,6.029,13.3014,4.60046,2470.357,2022-4-18T16:52:36Z
2022-04-18T14:54:00Z,42.805,6.029,13.3011,4.60046,2470.357,2022-4-18T16:55:39Z
2022-04-18T14:57:03Z,42.805,6.029,13.3008,4.60046,2470.32,2022-4-18T16:58:42Z
2022-04-18T15:00:06Z,42.805,6.029,13.3013,4.60046,2470.32,2022-4-18T17:01:45Z
2022-04-18T15:03:09Z,42.805,6.029,13.3009,4.60048,2470.297,2022-4-18T17:04:48Z
2022-04-18T15:06:12Z,42.805,6.029,13.3010,4.60047,2470.32,2022-4-18T17:07:51Z
2022-04-18T15:09:16Z,42.805,6.029,13.3013,4.60049,2470.357,2022-4-18T17:10:54Z
2022-04-18T15:12:19Z,42.805,6.029,13.3011,4.60046,2470.32,2022-4-18T17:13:57Z
2022-04-18T15:15:22Z,42.805,6.029,13.3013,4.60046,2470.32,2022-4-18T17:17:01Z